{"data":{"norad_id":65102,"epoch":"2026-05-25T01:44:47.898240Z","epoch_age_seconds":58823,"freshness":"FRESH","line1":"1 65102U 25167AA  26145.07277660  .00031951  00000+0  74026-3 0  9998","line2":"2 65102  53.1607  29.0760 0001038  81.2645 278.8478 15.42174008 45207","mean_motion":15.42174008,"eccentricity":0.0001038,"inclination_deg":53.1607,"raan_deg":29.076,"arg_perigee_deg":81.2645,"mean_anomaly_deg":278.8478,"bstar":0.00074026,"rev_number":4520,"period_min":93.374677081187,"perigee_km":438.9866769693,"apogee_km":440.40205876127,"semimajor_km":6817.8313678653,"source":"CELESTRAK","updated_at":"2026-05-25T13:38:20.687546Z"}}